Terminal Aerodrome Forecast
Issued by NWS Green Bay, WI

Home | Current Version | Previous Version | Graphics & Text | Print | Product List | Glossary On
Versions: 1 2 3 4 5 6 7 8 9 10 11 12 13 14 15 16 17 18 19 20 21 22 23 24 25 26 27 28 29 30 31 32 33 34 35 36 37 38 39 40 41 42 43 44 45 46 47 48 49 50
000
FTUS43 KGRB 180905 AAB
TAFGRB
TAF AMD
KGRB 180905Z 1809/1906 25006KT 5SM BR OVC005
     FM181500 23007KT P6SM BKN007
     FM181900 23010KT P6SM BKN010
     FM182100 23010KT P6SM BKN040
     FM190400 23012G23KT P6SM BKN100=

USA.gov is the U.S. government's official web portal to all federal, state and local government web resources and services.